Flag for U.S.A. Weather past 2 weeks in Salinas, California, U.S.A.

Now
54 °F

Clear.


Feels Like: 54 °F
Forecast: 56 / 74 °F
Wind: No wind

Location: Salinas Municipal Airport

Current Time: Sep 16, 2014 at 7:18:28 AM

Latest Report: Sep 16, 2014 at 6:53 AM


Visibility: 10 mi

Pressure: 29.94 "Hg

Humidity: 83%

Dew point: 49 °F

Location of SalinasLocation

Historic Weather in Salinas — Graph

°F

Salinas temperature yesterday

Maximum temperature yesterday: 75 °F (at 1:53 PM)
Minimum temperature yesterday: 59 °F (at 1:53 AM)
Average temperature yesterday: 66 °F

Past Weeks' High & Low Weather Summary

 TemperatureHumidityPressure
High83 °F (Sep 10, 12:53 PM)100% (Sep 11, 7:58 AM)30.03 "Hg (Sep 11, 7:58 AM)
Low54 °F (Sep 16, 5:53 AM)26% (Sep 10, 12:53 PM)29.75 "Hg (Sep 3, 6:53 PM)
Average63 °F76%29.89 "Hg
* Reported Sep 1 5:53 AM — Sep 16 5:53 AM, Salinas, Weather by CustomWeather, © 2014

Note: Actual official high and low records may vary slightly from our data, if they occured in-between our weather recording intervals... More about our weather records

Advertising

Salinas weather history for previous 24 hours

 ConditionsComfort  
Time TempWeatherWind HumidityBarometerVisibility
5:53 AM
Sep 16
54 °FClear.No wind83%29.93 "Hg10 mi
4:53 AM55 °FClear.No wind80%29.92 "Hg10 mi
3:53 AM58 °FClear.No wind78%29.93 "Hg10 mi
2:53 AM60 °FClear.3 mph72%29.93 "Hg10 mi
1:53 AM62 °FClear.No wind67%29.96 "Hg10 mi
12:53 AM63 °FClear.3 mph65%29.96 "Hg10 mi
11:53 PM
Sep 15
63 °FClear.No wind68%29.96 "Hg10 mi
10:53 PM65 °FClear.3 mph61%29.96 "Hg10 mi
9:53 PM66 °FClear.3 mph61%29.95 "Hg10 mi
8:53 PM66 °FClear.5 mph63%29.94 "Hg10 mi
7:53 PM67 °FSunny.7 mph59%29.93 "Hg10 mi
6:53 PM70 °FSunny.10 mph51%29.92 "Hg10 mi
5:53 PM72 °FSunny.10 mph49%29.92 "Hg10 mi
4:53 PM73 °FSunny.15 mph50%29.91 "Hg10 mi
3:53 PM74 °FSunny.12 mph53%29.91 "Hg10 mi
2:53 PM73 °FSunny.14 mph55%29.92 "Hg10 mi
1:53 PM75 °FSunny.16 mph50%29.92 "Hg10 mi
12:53 PM72 °FSunny.10 mph61%29.92 "Hg10 mi
11:53 AM71 °FSunny.8 mph61%29.93 "Hg10 mi
10:53 AM66 °FSunny.5 mph73%29.95 "Hg9 mi
9:53 AM63 °FLow clouds.7 mph81%29.95 "Hg8 mi
8:53 AM63 °FPartly sunny.6 mph81%29.94 "Hg10 mi
7:53 AM61 °FLow clouds.5 mph83%29.93 "Hg9 mi
Weather by CustomWeather, © 2014

See weather overviewHow to use our weather pages